Cloud_Cover
100 100 100 100 100 100 100 100 100 100 98 99 87 98 48 6 46 12 36 5 5 5 0 0 5 4 0 0 0 0 0 0 5 5 5 6 65 80
100 100 100 100 100 100 100 100 100 99 87 33 33 47 69 5 5 5 5 5 5 1 5 5 4 0 0 0 0 0 0 0 0 5 5 57 99 100
100 100 100 100 100 100 100 77 81 100 88 33 25 8 9 5 84 67 12 3 5 5 5 1 0 0 0 0 0 0 0 0 0 1 5 80 100 100
100 100 100 100 100 100 96 100 100 100 100 94 6 17 23 82 82 39 5 5 5 5 42 4 5 5 4 0 0 0 0 0 0 1 5 5 5 14
100 100 100 100 100 100 100 100 100 100 100 100 78 24 5 24 55 66 12 93 100 100 100 5 10 5 5 0 5 1 0 0 0 4 5 5 5 5
93 100 100 100 100 90 100 100 91 76 90 100 100 95 99 53 91 65 84 44 96 58 100 72 10 47 100 10 73 1 0 0 0 5 5 5 10 5
100 100 100 94 15 8 69 39 11 25 40 5 5 5 6 5 5 3 5 20 98 100 100 100 93 95 99 72 74 0 0 1 5 5 5 5 15 54
100 78 5 5 5 6 24 28 24 8 7 6 6 37 5 5 5 5 5 6 95 25 100 100 76 15 60 10 5 4 2 5 5 5 5 5 51 5
5 5 5 5 5 5 7 5 5 6 12 75 100 97 86 22 35 12 58 99 100 100 100 69 26 5 77 13 5 2 21 5 5 4 5 5 5 6
33 11 36 42 5 5 5 5 10 100 100 67 65 22 44 39 78 5 27 100 100 100 100 98 38 26 88 5 3 62 34 5 5 5 5 77 96 100
5 7 5 17 5 5 17 92 100 100 100 100 91 5 15 81 100 89 87 97 16 13 82 99 5 32 68 5 5 78 5 5 5 1 23 22 99 100
87 92 100 27 21 55 21 62 99 95 77 76 5 5 5 5 5 74 98 100 100 90 100 100 59 86 12 5 38 93 14 5 5 0 5 61 100 80
100 100 100 100 100 93 95 100 67 25 80 59 67 38 5 5 17 94 52 100 100 100 100 100 50 58 5 5 16 100 28 5 5 4 4 5 8 99
100 100 100 99 100 100 100 44 61 6 35 59 70 44 59 46 5 7 96 80 96 100 100 94 42 55 7 5 52 99 36 5 5 5 5 56 18 89
100 82 85 75 80 100 100 11 18 11 5 67 98 100 85 36 98 95 52 100 99 71 68 100 60 13 5 47 96 100 6 5 5 11 18 5 6 82
100 100 100 100 100 100 43 60 37 43 43 100 100 100 100 91 71 91 67 100 100 97 100 84 100 97 9 88 82 91 5 68 5 5 63 8 7 97
100 100 100 100 100 100 78 98 99 100 85 100 100 100 100 100 92 92 100 100 100 100 100 78 100 91 52 55 67 35 9 5 45 68 42 6 56 66
100 100 100 100 100 94 97 100 100 92 100 100 100 100 100 100 99 100 100 100 100 100 100 98 100 89 64 100 36 56 11 6 43 57 5 67 100 34
100 100 100 100 100 99 86 100 100 100 100 100 100 100 100 100 100 98 100 100 100 100 100 100 100 95 100 100 86 38 77 8 5 5 93 97 10 65
100 100 100 100 100 100 100 100 100 100 100 100 100 100 100 100 98 100 100 100 100 100 88 97 81 82 100 99 68 64 37 44 23 33 7 22 5 57
100 100 100 98 100 100 86 56 64 73 100 88 100 100 100 100 100 100 100 86 65 98 97 81 98 95 100 100 95 78 56 48 28 49 10 72 88 58
100 80 91 100 100 69 56 98 50 37 100 95 100 100 100 100 100 100 100 100 100 100 80 98 99 100 100 100 99 65 54 64 52 81 41 66 89 91
100 100 100 100 57 45 99 43 5 86 90 100 100 100 100 100 100 100 100 100 100 87 100 100 100 100 100 97 100 71 60 52 46 32 66 96 20 81